Location: Asheville, NC
(35.6000°N, 82.5500°W)
Time: 19:44:02
(UTC-04:00)

Vanguard 1 - Pass Details

Date: 15 March 2018
Orbit: 650 x 3833 km, 34.3° (Epoch: 23 June)

Event Time Altitude Azimuth Distance (km) Brightness Sun altitude
Rises 10:50:59 0° 253° (WSW) 7,294 14.2 35.7°
Reaches altitude 10° 10:55:27 10° 252° (WSW) 6,525 14.0 36.4°
Maximum altitude 11:18:47 83° 169° (S) 3,781 13.9 40.2°
Drops below altitude 10° 11:38:49 10° 85° (E) 5,746 14.5 43.1°
Sets 11:42:26 0° 85° (E) 6,435 14.6 43.6°
